Regional Weather Roundup
Issued by NWS

Home | Current Version | Previous Version | Text Only | Print | Product List | Glossary Off
Versions: 1 2 3 4 5 6 7 8 9 10 11 12 13 14 15 16 17 18 19 20 21 22 23 24 25 26 27 28 29 30 31 32 33 34 35 36 37 38 39 40 41 42 43 44 45 46 47 48 49 50

000
ASUS45 KPSR 250200
RWRAZ

PRELIMINARY ARIZONA REGIONAL HOURLY WEATHER ROUNDUP
NATIONAL WEATHER SERVICE PHOENIX AZ
700 PM MST WED DEC 24 2014

NOTE: FAIR INDICATES FEW OR NO CLOUDS BELOW 12,000 FEET WITH NO
SIGNIFICANT WEATHER AND/OR OBSTRUCTIONS TO VISIBILITY.

AZZ001>003-036-250300-
NORTHWEST ARIZONA

CITY           SKY/WX    TMP DP  RH WIND       PRES   REMARKS
KINGMAN        CLOUDY    47  17  30 VRB5      29.90R
$$

AZZ004>008-015-016-018-250300-
NORTH CENTRAL ARIZONA

CITY           SKY/WX    TMP DP  RH WIND       PRES   REMARKS
GRAND CANYON   CLOUDY    38  15  39 S12       29.90F WCI  30
PRESCOTT       CLOUDY    42  14  32 SE10      29.94F
FLAGSTAFF      NOT AVBL
PAYSON         CLOUDY    39  12  33 E3        30.00F
PAGE           CLOUDY    43  11  27 S5        29.84F
$$

AZZ009>014-017-250300-
NORTHEAST ARIZONA

CITY           SKY/WX    TMP DP  RH WIND       PRES   REMARKS
WINSLOW        NOT AVBL
SAINT JOHNS    CLOUDY    34  13  41 S5        29.94F WCI  30
WINDOW ROCK    CLOUDY    33  17  51 CALM      29.95F
$$

AZZ023-250300-
GREATER PHOENIX AREA

CITY           SKY/WX    TMP DP  RH WIND       PRES   REMARKS
PHOENIX        CLOUDY    58  20  22 E3        29.92F
GLENDALE       MOCLDY    55  25  30 S5        29.94F
LUKE AFB       CLOUDY    52  34  49 N3        29.92F
DEER VALLEY    CLOUDY    53  24  32 CALM      29.93F
SCOTTSDALE     CLOUDY    56  24  29 CALM      29.95F
MESA-GATEWAY   MOCLDY    54  25  32 CALM      29.96F
CHANDLER       MOCLDY    57  21  24 N5        29.94F
$$

AZZ027-028-250300-
SOUTHWEST MARICOPA COUNTY AND PINAL COUNTY

CITY           SKY/WX    TMP DP  RH WIND       PRES   REMARKS
CASA GRANDE    CLOUDY    52  25  35 CALM      29.94F
$$

AZZ503-504-507>509-250300-
SOUTHEAST ARIZONA

CITY           SKY/WX    TMP DP  RH WIND       PRES   REMARKS
TUCSON         MOCLDY    53  22  29 CALM      29.97F
DAVIS-MONTHAN  CLOUDY    50  26  39 CALM      29.94F
RYAN FIELD       N/A     54  28  37 S7        29.96F
NOGALES        PTCLDY    49  11  21 NW5       29.99R
SIERRA VISTA   MOCLDY    43  10  26 S8        30.01S
SAFFORD        CLOUDY    44  20  38 NE8       30.00F
$$

AZZ020-021-025-026-031-250300-
SOUTHWEST ARIZONA

CITY           SKY/WX    TMP DP  RH WIND       PRES   REMARKS
YUMA           CLOUDY   N/A N/A N/A CALM      29.90F
$$

CAZ031-033-041-043-047-048-061-250300-
SOUTHERN CALIFORNIA

CITY           SKY/WX    TMP DP  RH WIND       PRES   REMARKS
DOWNTOWN L.A.  CLOUDY    65  46  50 VRB3      29.90S
L.A. AIRPORT   CLOUDY    63  55  75 SW8       29.90F
SAN DIEGO      PTCLDY    65  52  62 S6        29.93F
BURBANK        CLOUDY    63  41  44 SW5       29.92R
ONTARIO        CLOUDY    65  39  38 SW6       29.90S
RIVERSIDE      CLOUDY    66  39  37 W3        29.90F
PALM SPRINGS   MOCLDY    61  23  23 E5        29.90F
EL CENTRO NAS  CLOUDY    59  29  31 SE7       29.88F
IMPERIAL       CLOUDY    62  27  26 S6        29.89F
BLYTHE         CLOUDY    59  27  29 SE6       29.87F
$$

NVZ020-UTZ003-250300-
SOUTHERN NEVADA-UTAH

CITY           SKY/WX    TMP DP  RH WIND       PRES   REMARKS
LAS VEGAS      NOT AVBL
SALT LAKE CITY CLOUDY    46  23  40 S23G29    29.56F
$$

NMZ009-TXZ055-250300-
NEW MEXICO-WEST TEXAS

CITY           SKY/WX    TMP DP  RH WIND       PRES   REMARKS
ALBUQUERQUE    MOCLDY    32  12  43 S3        29.98F
EL PASO        PTCLDY    43   8  23 SW6       30.04S
$$


........................KEY........................
SKY/WX - SKY CONDITION/WEATHER
TMP    - TEMPERATURE IN FAHRENHEIT
DP     - DEW POINT IN FAHRENHEIT
RH     - RELATIVE HUMIDITY IN PERCENT
WIND   - DIRECTION AND SPEED IN MILES PER HOUR (MPH)
VRB    - VARIABLE WIND DIRECTION
PRES   - MEAN SEA LEVEL PRESSURE IN INCHES OF MERCURY
         F - FALLING PRESSURE   R - RISING PRESSURE
         S - STEADY PRESSURE
VSB    - VISIBILITY IN MILES
HX     - HEAT INDEX IN FAHRENHEIT
WCI    - WIND CHILL INDEX IN FAHRENHEIT
TC     - TEMPERATURE IN CELSIUS WHICH IS ALSO KNOWN AS
         TEMPERATURE IN CENTIGRADE
AFB    - AIR FORCE BASE
         LUKE AFB IS LUKE AIR FORCE BASE
         DAVIS-MONTHAN IS DAVIS-MONTHAN AIR FORCE BASE
NAS    - NAVAL AIR STATION
         EL CENTRO NAS IS EL CENTRO NAVAL AIR STATION
N/A    - NOT AVAILABLE


USA.gov is the U.S. government's official web portal to all federal, state and local government web resources and services.